Location: Ch�ze
(42.9000°N, 0.0333°W)
Time: 23:38:43
(UTC+00:00)

COSMOS 2455 - Pass Details

Date: 24 January 2021
Orbit: 901 x 908 km, 67.1° (Epoch: 24 February)

Event Time Altitude Azimuth Distance (km) Brightness Sun altitude
Rises 17:54:57 0° 228° (SW) 3,521 7.2 -9.7°
Reaches altitude 10° 17:57:33 10° 234° (SW) 2,584 6.5 -10.2°
Maximum altitude 18:03:18 46° 307° (NW) 1,200 3.8 -11.2°
Drops below altitude 10° 18:09:05 10° 21° (NNE) 2,601 4.9 -12.2°
Enters shadow 18:11:08 - 26° (NNE) 3,327 5.4 -12.6°
